Total_Precipitation_Accumulation
0.10 0.06 0.04 0.05 0.04 0.04 0.05 0.06 0.09 0.18 0.34 0.47 0.69 0.79 0.73 0.60 0.52 0.49 0.46 0.41 0.37 0.32 0.27 0.21 0.16 0.14 0.12 0.12 0.10 0.08 0.06 0.06 0.06 0.07 0.07 0.08 0.10 0.10 0.10 0.10 0.09 0.09 0.08 0.07
0.08 0.07 0.06 0.07 0.07 0.09 0.11 0.13 0.17 0.30 0.51 0.68 0.69 0.65 0.63 0.56 0.49 0.50 0.56 0.56 0.51 0.40 0.29 0.22 0.19 0.18 0.17 0.16 0.14 0.11 0.11 0.12 0.12 0.12 0.13 0.14 0.14 0.14 0.14 0.12 0.11 0.08 0.05 0.03
0.09 0.09 0.10 0.18 0.20 0.20 0.22 0.20 0.23 0.32 0.45 0.50 0.53 0.52 0.52 0.49 0.50 0.55 0.58 0.54 0.46 0.35 0.28 0.27 0.27 0.27 0.26 0.24 0.21 0.20 0.19 0.18 0.18 0.17 0.17 0.17 0.15 0.13 0.11 0.09 0.06 0.05 0.04 0.03
0.07 0.09 0.20 0.30 0.22 0.21 0.19 0.18 0.20 0.23 0.25 0.28 0.35 0.39 0.41 0.41 0.46 0.52 0.55 0.52 0.45 0.38 0.35 0.36 0.35 0.34 0.31 0.28 0.24 0.23 0.23 0.23 0.21 0.19 0.17 0.14 0.11 0.09 0.07 0.05 0.05 0.04 0.03 0.03
0.11 0.16 0.23 0.26 0.17 0.17 0.20 0.21 0.18 0.18 0.19 0.21 0.23 0.26 0.31 0.33 0.35 0.37 0.41 0.39 0.35 0.35 0.38 0.40 0.39 0.35 0.32 0.30 0.27 0.26 0.24 0.20 0.16 0.12 0.09 0.07 0.06 0.05 0.04 0.04 0.04 0.03 0.02 0.03
0.19 0.28 0.37 0.36 0.17 0.11 0.16 0.28 0.22 0.17 0.16 0.19 0.25 0.31 0.29 0.25 0.24 0.23 0.24 0.26 0.31 0.38 0.42 0.43 0.39 0.32 0.30 0.27 0.23 0.19 0.14 0.10 0.07 0.05 0.04 0.03 0.03 0.03 0.04 0.04 0.04 0.03 0.03 0.04
0.30 0.39 0.43 0.21 0.10 0.11 0.28 0.40 0.34 0.27 0.26 0.28 0.34 0.33 0.24 0.17 0.17 0.18 0.22 0.29 0.35 0.38 0.39 0.35 0.28 0.22 0.19 0.17 0.14 0.10 0.07 0.05 0.03 0.02 0.02 0.02 0.03 0.04 0.05 0.05 0.05 0.05 0.05 0.06
0.37 0.47 0.54 0.21 0.13 0.24 0.30 0.26 0.29 0.27 0.26 0.26 0.24 0.20 0.16 0.15 0.16 0.19 0.27 0.35 0.38 0.37 0.33 0.25 0.19 0.15 0.14 0.11 0.07 0.05 0.05 0.04 0.03 0.02 0.01 0.02 0.04 0.07 0.07 0.07 0.06 0.06 0.05 0.05
0.44 0.47 0.34 0.16 0.12 0.14 0.18 0.21 0.21 0.20 0.19 0.19 0.22 0.22 0.20 0.21 0.25 0.31 0.36 0.38 0.34 0.29 0.23 0.16 0.11 0.09 0.09 0.07 0.04 0.05 0.06 0.05 0.04 0.03 0.03 0.03 0.05 0.07 0.08 0.08 0.06 0.05 0.05 0.05
0.39 0.38 0.27 0.17 0.12 0.10 0.13 0.17 0.19 0.21 0.24 0.28 0.33 0.33 0.31 0.31 0.34 0.35 0.33 0.27 0.20 0.14 0.10 0.07 0.04 0.03 0.03 0.03 0.02 0.04 0.05 0.04 0.04 0.05 0.05 0.06 0.07 0.06 0.07 0.07 0.05 0.05 0.06 0.06
0.61 0.55 0.41 0.25 0.17 0.17 0.18 0.21 0.28 0.34 0.36 0.38 0.36 0.33 0.31 0.31 0.28 0.23 0.17 0.11 0.08 0.06 0.04 0.03 0.02 0.01 0.01 0.01 0.02 0.05 0.05 0.04 0.04 0.04 0.05 0.09 0.09 0.05 0.04 0.04 0.01 0.03 0.05 0.06
0.92 0.70 0.57 0.43 0.34 0.36 0.36 0.35 0.35 0.34 0.33 0.32 0.28 0.23 0.21 0.19 0.15 0.12 0.08 0.06 0.06 0.04 0.02 0.01 0.01 0.00 0.00 0.00 0.01 0.03 0.06 0.05 0.03 0.03 0.04 0.06 0.09 0.10 0.04 0.01 0.00 0.01 0.03 0.05
0.73 0.58 0.53 0.52 0.48 0.47 0.42 0.31 0.26 0.23 0.20 0.21 0.19 0.15 0.13 0.10 0.07 0.06 0.04 0.04 0.04 0.02 0.01 0.00 0.00 0.00 0.00 0.00 0.00 0.01 0.04 0.04 0.02 0.02 0.03 0.04 0.06 0.11 0.12 0.08 0.02 0.02 0.02 0.03
0.49 0.47 0.49 0.39 0.29 0.22 0.15 0.11 0.13 0.15 0.14 0.11 0.10 0.10 0.07 0.04 0.03 0.03 0.03 0.02 0.01 0.01 0.00 0.00 0.00 0.00 0.00 0.00 0.01 0.01 0.02 0.02 0.02 0.02 0.02 0.03 0.04 0.06 0.09 0.13 0.13 0.11 0.06 0.03
0.28 0.24 0.19 0.11 0.07 0.07 0.07 0.06 0.08 0.11 0.11 0.08 0.06 0.05 0.04 0.03 0.03 0.02 0.01 0.00 0.00 0.00 0.00 0.00 0.00 0.00 0.00 0.00 0.01 0.01 0.01 0.02 0.02 0.01 0.01 0.01 0.02 0.03 0.05 0.08 0.10 0.10 0.08 0.06
0.10 0.07 0.05 0.05 0.05 0.05 0.06 0.07 0.07 0.07 0.07 0.06 0.05 0.04 0.03 0.02 0.01 0.01 0.00 0.00 0.00 0.00 0.00 0.00 0.00 0.00 0.00 0.00 0.01 0.02 0.01 0.00 0.00 0.01 0.01 0.01 0.01 0.02 0.04 0.07 0.08 0.08 0.08 0.06
0.05 0.04 0.03 0.04 0.04 0.04 0.05 0.04 0.04 0.04 0.05 0.05 0.03 0.02 0.01 0.01 0.01 0.01 0.00 0.00 0.00 0.00 0.00 0.00 0.00 0.00 0.00 0.00 0.01 0.01 0.01 0.01 0.00 0.00 0.00 0.00 0.01 0.01 0.02 0.05 0.06 0.07 0.07 0.08
0.02 0.02 0.02 0.01 0.02 0.02 0.02 0.02 0.02 0.02 0.02 0.01 0.01 0.00 0.00 0.00 0.01 0.00 0.00 0.00 0.00 0.00 0.00 0.00 0.00 0.00 0.00 0.00 0.00 0.00 0.01 0.01 0.00 0.00 0.00 0.00 0.00 0.00 0.01 0.02 0.04 0.05 0.07 0.08
0.01 0.01 0.01 0.01 0.01 0.01 0.01 0.01 0.01 0.00 0.00 0.00 0.00 0.00 0.00 0.00 0.00 0.00 0.00 0.00 0.00 0.00 0.00 0.00 0.00 0.00 0.00 0.00 0.00 0.00 0.00 0.01 0.01 0.00 0.00 0.00 0.00 0.01 0.01 0.01 0.02 0.03 0.05 0.07
0.01 0.02 0.01 0.01 0.00 0.00 0.00 0.00 0.00 0.00 0.00 0.00 0.00 0.00 0.00 0.00 0.00 0.00 0.00 0.00 0.00 0.00 0.00 0.00 0.00 0.00 0.00 0.00 0.00 0.00 0.00 0.00 0.00 0.00 0.00 0.00 0.00 0.00 0.00 0.01 0.01 0.02 0.03 0.05
0.02 0.02 0.02 0.00 0.00 0.00 0.00 0.00 0.01 0.01 0.00 0.00 0.00 0.00 0.00 0.00 0.00 0.00 0.00 0.00 0.00 0.00 0.00 0.00 0.00 0.00 0.00 0.00 0.00 0.00 0.00 0.00 0.00 0.00 0.00 0.00 0.00 0.00 0.00 0.01 0.01 0.01 0.02 0.04
0.03 0.04 0.02 0.01 0.01 0.01 0.01 0.01 0.00 0.00 0.00 0.00 0.00 0.00 0.00 0.00 0.00 0.00 0.00 0.00 0.00 0.00 0.00 0.00 0.00 0.00 0.00 0.00 0.00 0.00 0.00 0.00 0.00 0.00 0.00 0.00 0.00 0.00 0.00 0.00 0.01 0.01 0.01 0.02
0.06 0.04 0.03 0.02 0.02 0.01 0.01 0.01 0.00 0.00 0.00 0.00 0.00 0.00 0.00 0.00 0.00 0.00 0.00 0.00 0.00 0.00 0.00 0.00 0.00 0.00 0.00 0.00 0.00 0.00 0.00 0.00 0.00 0.00 0.00 0.00 0.00 0.00 0.00 0.00 0.00 0.01 0.01 0.01
0.10 0.08 0.05 0.03 0.02 0.02 0.02 0.01 0.00 0.00 0.00 0.00 0.00 0.00 0.00 0.00 0.00 0.00 0.00 0.00 0.00 0.00 0.00 0.00 0.00 0.00 0.00 0.00 0.00 0.00 0.00 0.00 0.00 0.00 0.00 0.00 0.00 0.00 0.00 0.00 0.00 0.00 0.00 0.00
0.14 0.10 0.06 0.05 0.05 0.04 0.02 0.01 0.00 0.00 0.00 0.00 0.00 0.00 0.00 0.00 0.00 0.00 0.00 0.00 0.00 0.00 0.00 0.00 0.00 0.00 0.00 0.00 0.00 0.00 0.00 0.00 0.00 0.00 0.00 0.00 0.00 0.00 0.00 0.00 0.00 0.00 0.00 0.00
0.20 0.17 0.13 0.09 0.05 0.02 0.01 0.00 0.00 0.00 0.00 0.00 0.00 0.00 0.00 0.00 0.00 0.00 0.00 0.00 0.00 0.00 0.00 0.00 0.00 0.00 0.00 0.00 0.00 0.00 0.00 0.00 0.00 0.00 0.00 0.00 0.00 0.00 0.00 0.00 0.00 0.00 0.00 0.00
0.25 0.21 0.16 0.10 0.04 0.01 0.00 0.00 0.00 0.00 0.00 0.00 0.00 0.00 0.00 0.00 0.00 0.00 0.00 0.00 0.00 0.00 0.00 0.00 0.00 0.00 0.00 0.00 0.00 0.00 0.00 0.00 0.00 0.00 0.00 0.00 0.00 0.00 0.00 0.00 0.00 0.00 0.00 0.00